| time (UTC) | temp F | wind direction | speed MPH | gust MPH | rain 1hr in | rain 24hr in | rain mn in | humidity % | barometer mb |
| 20260903102545 | 73 | 225 | 5.0 | 21.0 | 0.00 | 0.00 | 0.00 | 58 | 1017.3 |
| 20260903102047 | 73 | 281 | 10.0 | 21.0 | 0.00 | 0.00 | 0.00 | 58 | 1017.3 |
| 20260903101648 | 73 | 205 | 5.0 | 18.0 | 0.00 | 0.00 | 0.00 | 58 | 1017.2 |
| 20260903101049 | 72 | 247 | 9.0 | 14.0 | 0.00 | 0.00 | 0.00 | 58 | 1017.3 |
| 20260903100547 | 73 | 248 | 6.0 | 16.0 | 0.00 | 0.00 | 0.00 | 58 | 1017.3 |
| 20260903100044 | 72 | 262 | 10.0 | 16.0 | 0.00 | 0.00 | 0.00 | 59 | 1017.4 |
| 20260903095542 | 71 | 227 | 6.0 | 13.0 | 0.00 | 0.00 | 0.00 | 61 | 1017.4 |
| 20260903095041 | 71 | 215 | 9.0 | 14.0 | 0.00 | 0.00 | 0.00 | 61 | 1017.5 |
| 20260903094541 | 71 | 292 | 7.0 | 14.0 | 0.00 | 0.00 | 0.00 | 62 | 1017.5 |
| 20260903094043 | 71 | 281 | 5.0 | 15.0 | 0.00 | 0.00 | 0.00 | 63 | 1017.5 |
| 20260903093542 | 71 | 268 | 8.0 | 15.0 | 0.00 | 0.00 | 0.00 | 61 | 1017.5 |
| 20260903093043 | 71 | 236 | 8.0 | 15.0 | 0.00 | 0.00 | 0.00 | 61 | 1017.7 |
| 20260903092537 | 71 | 242 | 3.0 | 12.0 | 0.00 | 0.00 | 0.00 | 63 | 1017.7 |
| 20260903092038 | 71 | 316 | 7.0 | 18.0 | 0.00 | 0.00 | 0.00 | 61 | 1017.7 |
| 20260903091536 | 71 | 200 | 9.0 | 18.0 | 0.00 | 0.00 | 0.00 | 62 | 1017.7 |
| 20260903091035 | 71 | 217 | 7.0 | 12.0 | 0.00 | 0.00 | 0.00 | 62 | 1017.8 |
| 20260903090538 | 71 | 215 | 4.0 | 19.0 | 0.00 | 0.00 | 0.00 | 63 | 1017.8 |
| 20260903090034 | 72 | 207 | 5.0 | 13.0 | 0.00 | 0.00 | 0.00 | 63 | 1017.9 |
| 20260903085532 | 70 | 258 | 6.0 | 13.0 | 0.00 | 0.00 | 0.00 | 63 | 1017.9 |
| 20260903085031 | 71 | 224 | 4.0 | 15.0 | 0.00 | 0.00 | 0.00 | 65 | 1017.9 |
| 20260903084534 | 70 | 306 | 10.0 | 18.0 | 0.00 | 0.00 | 0.00 | 65 | 1018.0 |
| 20260903084028 | 70 | 273 | 9.0 | 18.0 | 0.00 | 0.00 | 0.00 | 65 | 1018.1 |
| 20260903083528 | 70 | 328 | 7.0 | 16.0 | 0.00 | 0.00 | 0.00 | 65 | 1018.1 |
| 20260903083027 | 71 | 331 | 5.0 | 16.0 | 0.00 | 0.00 | 0.00 | 65 | 1018.1 |
| 20260903082525 | 70 | 281 | 4.0 | 16.0 | 0.00 | 0.00 | 0.00 | 67 | 1018.1 |
| 20260903082024 | 69 | 296 | 6.0 | 13.0 | 0.00 | 0.00 | 0.00 | 67 | 1018.1 |
| 20260903081526 | 68 | 329 | 7.0 | 16.0 | 0.00 | 0.00 | 0.00 | 67 | 1018.1 |
| 20260903081122 | 68 | 250 | 6.0 | 16.0 | 0.00 | 0.00 | 0.00 | 68 | 1018.1 |
| 20260903080524 | 68 | 298 | 6.0 | 13.0 | 0.00 | 0.00 | 0.00 | 68 | 1018.1 |
| 20260903080020 | 68 | 231 | 6.0 | 14.0 | 0.00 | 0.00 | 0.00 | 71 | 1018.1 |
| 20260903075520 | 68 | 307 | 2.0 | 14.0 | 0.00 | 0.00 | 0.00 | 69 | 1018.0 |
| 20260903075021 | 69 | 300 | 7.0 | 10.0 | 0.00 | 0.00 | 0.00 | 68 | 1018.1 |
| 20260903074517 | 68 | 244 | 2.0 | 11.0 | 0.00 | 0.00 | 0.00 | 71 | 1018.1 |
| 20260903074016 | 67 | 239 | 4.0 | 13.0 | 0.00 | 0.00 | 0.00 | 71 | 1018.0 |
| 20260903073519 | 67 | 328 | 8.0 | 13.0 | 0.00 | 0.00 | 0.00 | 71 | 1018.0 |
| 20260903073031 | 67 | 244 | 6.0 | 15.0 | 0.00 | 0.00 | 0.00 | 72 | 1018.1 |
| 20260903072511 | 67 | 280 | 7.0 | 12.0 | 0.00 | 0.00 | 0.00 | 72 | 1018.0 |
| 20260903072011 | 66 | 319 | 3.0 | 11.0 | 0.00 | 0.00 | 0.00 | 75 | 1017.9 |
| 20260903071510 | 66 | 251 | 3.0 | 11.0 | 0.00 | 0.00 | 0.00 | 75 | 1017.9 |
| 20260903071009 | 65 | 211 | 4.0 | 9.0 | 0.00 | 0.00 | 0.00 | 76 | 1017.9 |
| 20260903070506 | 65 | 246 | 3.0 | 9.0 | 0.00 | 0.00 | 0.00 | 77 | 1017.9 |
| 20260903070006 | 64 | 217 | 1.0 | 9.0 | 0.00 | 0.00 | 0.00 | 80 | 1017.9 |
| 20260903065504 | 63 | 251 | 4.0 | 9.0 | 0.00 | 0.00 | 0.00 | 80 | 1017.8 |
| 20260903065002 | 63 | 360 | 6.0 | 9.0 | 0.00 | 0.00 | 0.00 | 80 | 1017.9 |
| 20260903064502 | 62 | 211 | 2.0 | 7.0 | 0.00 | 0.00 | 0.00 | 81 | 1017.9 |
| 20260903064059 | 62 | 209 | 3.0 | 7.0 | 0.00 | 0.00 | 0.00 | 81 | 1017.9 |
| 20260903063601 | 62 | 205 | 3.0 | 7.0 | 0.00 | 0.00 | 0.00 | 82 | 1017.8 |
| 20260903063057 | 61 | 223 | 2.0 | 7.0 | 0.00 | 0.00 | 0.00 | 83 | 1017.9 |
| 20260903062555 | 61 | 222 | 2.0 | 6.0 | 0.00 | 0.00 | 0.00 | 83 | 1017.9 |
| 20260903062054 | 61 | 227 | 0.0 | 0.0 | 0.00 | 0.00 | 0.00 | 84 | 1017.9 |
| 20260903061602 | 60 | 247 | 0.0 | 0.0 | 0.00 | 0.00 | 0.00 | 86 | 1017.9 |
| 20260903061050 | 60 | 254 | 0.0 | 0.0 | 0.00 | 0.00 | 0.00 | 87 | 1017.9 |
| 20260903060649 | 60 | 248 | 0.0 | 0.0 | 0.00 | 0.00 | 0.00 | 89 | 1017.9 |
| 20260903060048 | 59 | 360 | 0.0 | 0.0 | 0.00 | 0.00 | 0.00 | 90 | 1018.0 |
| 20260903055547 | 59 | 270 | 0.0 | 0.0 | 0.00 | 0.00 | 0.00 | 91 | 1017.9 |
| 20260903055046 | 58 | 271 | 0.0 | 0.0 | 0.00 | 0.00 | 0.00 | 92 | 1018.1 |
| 20260903054544 | 58 | 271 | 0.0 | 0.0 | 0.00 | 0.00 | 0.00 | 92 | 1018.1 |
| 20260903054043 | 57 | 271 | 0.0 | 0.0 | 0.00 | 0.00 | 0.00 | 93 | 1018.1 |
| 20260903053541 | 57 | 271 | 0.0 | 0.0 | 0.00 | 0.00 | 0.00 | 93 | 1018.1 |
| 20260903053055 | 57 | 271 | 0.0 | 0.0 | 0.00 | 0.00 | 0.00 | 93 | 1018.1 |
| 20260903052543 | 56 | 271 | 0.0 | 0.0 | 0.00 | 0.00 | 0.00 | 94 | 1018.1 |
| 20260903052040 | 56 | 271 | 0.0 | 0.0 | 0.00 | 0.00 | 0.00 | 94 | 1018.0 |
| 20260903051540 | 55 | 294 | 0.0 | 0.0 | 0.00 | 0.00 | 0.00 | 94 | 1017.9 |
| 20260903051038 | 55 | 294 | 0.0 | 0.0 | 0.00 | 0.00 | 0.00 | 94 | 1018.0 |
| 20260903050535 | 55 | 360 | 0.0 | 0.0 | 0.00 | 0.00 | 0.00 | 94 | 1017.9 |
| 20260903050034 | 55 | 290 | 0.0 | 0.0 | 0.00 | 0.00 | 0.00 | 95 | 1018.0 |
| 20260903045534 | 54 | 290 | 0.0 | 0.0 | 0.00 | 0.00 | 0.00 | 95 | 1017.9 |
| 20260903045033 | 53 | 290 | 0.0 | 0.0 | 0.00 | 0.00 | 0.00 | 95 | 1017.9 |
| 20260903044532 | 53 | 360 | 0.0 | 0.0 | 0.00 | 0.00 | 0.00 | 94 | 1018.1 |
| 20260903044030 | 53 | 360 | 0.0 | 0.0 | 0.00 | 0.00 | 0.00 | 94 | 1018.0 |
| 20260903043528 | 52 | 291 | 0.0 | 0.0 | 0.00 | 0.00 | 0.00 | 94 | 1018.0 |
| 20260903043034 | 52 | 360 | 0.0 | 0.0 | 0.00 | 0.00 | 0.00 | 94 | 1018.0 |
| 20260903042527 | 52 | 291 | 0.0 | 0.0 | 0.00 | 0.00 | 0.00 | 94 | 1018.0 |
| 20260903042026 | 52 | 360 | 0.0 | 0.0 | 0.00 | 0.00 | 0.00 | 94 | 1018.0 |
| 20260903041528 | 51 | 360 | 0.0 | 0.0 | 0.00 | 0.00 | 0.00 | 94 | 1018.0 |
| 20260903041024 | 51 | 360 | 0.0 | 0.0 | 0.00 | 0.00 | 0.00 | 94 | 1017.9 |
| 20260903040524 | 51 | 291 | 0.0 | 0.0 | 0.00 | 0.00 | 0.00 | 93 | 1017.9 |
| 20260903035527 | 52 | 360 | 0.0 | 0.0 | 0.00 | 0.00 | 0.00 | 93 | 1017.9 |
| 20260903035022 | 52 | 291 | 0.0 | 0.0 | 0.00 | 0.00 | 0.00 | 93 | 1017.9 |
| 20260903034523 | 52 | 360 | 0.0 | 0.0 | 0.00 | 0.00 | 0.00 | 93 | 1017.9 |
| 20260903034022 | 52 | 291 | 0.0 | 0.0 | 0.00 | 0.00 | 0.00 | 93 | 1017.9 |
| 20260903033524 | 52 | 291 | 0.0 | 0.0 | 0.00 | 0.00 | 0.00 | 93 | 1017.9 |
| 20260903033021 | 52 | 291 | 0.0 | 0.0 | 0.00 | 0.00 | 0.00 | 93 | 1017.9 |
| 20260903032521 | 52 | 360 | 0.0 | 0.0 | 0.00 | 0.00 | 0.00 | 93 | 1017.9 |
| 20260903032023 | 52 | 360 | 0.0 | 0.0 | 0.00 | 0.00 | 0.00 | 93 | 1017.9 |
| 20260903031527 | 52 | 360 | 0.0 | 0.0 | 0.00 | 0.00 | 0.00 | 93 | 1018.0 |
| 20260903031019 | 52 | 360 | 0.0 | 0.0 | 0.00 | 0.00 | 0.00 | 93 | 1017.9 |
| 20260903030519 | 52 | 360 | 0.0 | 0.0 | 0.00 | 0.00 | 0.00 | 93 | 1017.9 |
| 20260903030029 | 52 | 360 | 0.0 | 0.0 | 0.00 | 0.00 | 0.00 | 93 | 1017.9 |
| 20260903025523 | 53 | 360 | 0.0 | 0.0 | 0.00 | 0.00 | 0.00 | 93 | 1018.0 |
| 20260903025019 | 53 | 360 | 0.0 | 0.0 | 0.00 | 0.00 | 0.00 | 93 | 1018.0 |
| 20260903024518 | 53 | 360 | 0.0 | 0.0 | 0.00 | 0.00 | 0.00 | 93 | 1018.0 |
| 20260903024019 | 53 | 360 | 0.0 | 0.0 | 0.00 | 0.00 | 0.00 | 93 | 1018.0 |
| 20260903023517 | 53 | 360 | 0.0 | 0.0 | 0.00 | 0.00 | 0.00 | 93 | 1018.1 |
| 20260903023016 | 53 | 360 | 0.0 | 0.0 | 0.00 | 0.00 | 0.00 | 93 | 1018.0 |
| 20260903022515 | 53 | 294 | 0.0 | 0.0 | 0.00 | 0.00 | 0.00 | 92 | 1017.9 |
| 20260903022015 | 53 | 294 | 0.0 | 0.0 | 0.00 | 0.00 | 0.00 | 92 | 1017.9 |
| 20260903021515 | 53 | 294 | 0.0 | 0.0 | 0.00 | 0.00 | 0.00 | 92 | 1018.0 |
| 20260903021014 | 54 | 294 | 0.0 | 0.0 | 0.00 | 0.00 | 0.00 | 92 | 1017.9 |
| 20260903020512 | 54 | 294 | 0.0 | 0.0 | 0.00 | 0.00 | 0.00 | 92 | 1018.0 |
| 20260903020012 | 54 | 294 | 0.0 | 0.0 | 0.00 | 0.00 | 0.00 | 92 | 1017.9 |
| 20260903015011 | 54 | 294 | 0.0 | 0.0 | 0.00 | 0.00 | 0.00 | 92 | 1018.0 |
| 20260903014511 | 54 | 294 | 0.0 | 0.0 | 0.00 | 0.00 | 0.00 | 92 | 1017.9 |
| 20260903014013 | 54 | 294 | 0.0 | 0.0 | 0.00 | 0.00 | 0.00 | 92 | 1018.0 |
| 20260903013511 | 54 | 294 | 0.0 | 0.0 | 0.00 | 0.00 | 0.00 | 92 | 1018.0 |
| 20260903013014 | 54 | 294 | 0.0 | 0.0 | 0.00 | 0.00 | 0.00 | 92 | 1018.0 |
| 20260903012509 | 54 | 294 | 0.0 | 0.0 | 0.00 | 0.00 | 0.00 | 92 | 1018.0 |
| 20260903012009 | 55 | 294 | 0.0 | 0.0 | 0.00 | 0.00 | 0.00 | 91 | 1018.0 |
| 20260903011512 | 55 | 294 | 0.0 | 0.0 | 0.00 | 0.00 | 0.00 | 91 | 1018.0 |
| 20260903011006 | 55 | 294 | 0.0 | 0.0 | 0.00 | 0.00 | 0.00 | 91 | 1017.9 |
| 20260903010506 | 55 | 294 | 0.0 | 0.0 | 0.00 | 0.00 | 0.00 | 91 | 1018.0 |
| 20260903010008 | 55 | 294 | 0.0 | 0.0 | 0.00 | 0.00 | 0.00 | 91 | 1018.1 |
| 20260903005505 | 56 | 294 | 0.0 | 0.0 | 0.00 | 0.00 | 0.00 | 91 | 1018.1 |
| 20260903005005 | 56 | 294 | 0.0 | 0.0 | 0.00 | 0.00 | 0.00 | 91 | 1018.1 |
| 20260903004503 | 56 | 294 | 0.0 | 0.0 | 0.00 | 0.00 | 0.00 | 91 | 1018.1 |
| 20260903004004 | 56 | 294 | 0.0 | 0.0 | 0.00 | 0.00 | 0.00 | 91 | 1018.0 |
| 20260903003503 | 57 | 294 | 0.0 | 0.0 | 0.00 | 0.00 | 0.00 | 91 | 1018.0 |
| 20260903003003 | 57 | 294 | 0.0 | 0.0 | 0.00 | 0.00 | 0.00 | 91 | 1018.0 |
| 20260903002501 | 57 | 294 | 0.0 | 0.0 | 0.00 | 0.00 | 0.00 | 91 | 1017.9 |
| 20260903002003 | 57 | 294 | 0.0 | 0.0 | 0.00 | 0.00 | 0.00 | 91 | 1018.0 |
| 20260903001602 | 57 | 294 | 0.0 | 0.0 | 0.00 | 0.00 | 0.00 | 91 | 1018.0 |
| 20260903001501 | 57 | 294 | 0.0 | 0.0 | 0.00 | 0.00 | 0.00 | 91 | 1017.9 |
| 20260903001102 | 57 | 294 | 0.0 | 0.0 | 0.00 | 0.00 | 0.00 | 91 | 1017.9 |
| 20260903000600 | 57 | 294 | 0.0 | 0.0 | 0.00 | 0.00 | 0.00 | 91 | 1018.0 |
| 20260903000059 | 57 | 294 | 0.0 | 0.0 | 0.00 | 0.00 | 0.00 | 91 | 1018.1 |
| 20260902235559 | 57 | 294 | 0.0 | 0.0 | 0.00 | 0.00 | 0.00 | 91 | 1018.1 |
| 20260902234600 | 57 | 294 | 0.0 | 0.0 | 0.00 | 0.00 | 0.00 | 91 | 1018.1 |
| 20260902234058 | 57 | 294 | 0.0 | 0.0 | 0.00 | 0.00 | 0.00 | 91 | 1018.1 |
| 20260902233558 | 57 | 294 | 0.0 | 0.0 | 0.00 | 0.00 | 0.00 | 91 | 1018.1 |
| 20260902233058 | 57 | 294 | 0.0 | 0.0 | 0.00 | 0.00 | 0.00 | 91 | 1018.1 |
| 20260902232559 | 57 | 294 | 0.0 | 0.0 | 0.00 | 0.00 | 0.00 | 91 | 1018.1 |
| 20260902232058 | 57 | 294 | 0.0 | 0.0 | 0.00 | 0.00 | 0.00 | 91 | 1018.1 |
| 20260902231610 | 57 | 294 | 0.0 | 0.0 | 0.00 | 0.00 | 0.00 | 91 | 1018.1 |
| 20260902231057 | 57 | 294 | 0.0 | 0.0 | 0.00 | 0.00 | 0.00 | 91 | 1018.2 |
| 20260902230601 | 57 | 294 | 0.0 | 0.0 | 0.00 | 0.00 | 0.00 | 90 | 1018.1 |
| 20260902230056 | 57 | 294 | 0.0 | 0.0 | 0.00 | 0.00 | 0.00 | 90 | 1018.1 |
| 20260902225556 | 57 | 294 | 0.0 | 0.0 | 0.00 | 0.00 | 0.00 | 90 | 1018.1 |
| 20260902225056 | 57 | 294 | 0.0 | 0.0 | 0.00 | 0.00 | 0.00 | 90 | 1018.0 |
| 20260902224604 | 58 | 294 | 0.0 | 0.0 | 0.00 | 0.00 | 0.00 | 90 | 1018.0 |
| 20260902224057 | 58 | 294 | 0.0 | 0.0 | 0.00 | 0.00 | 0.00 | 90 | 1018.0 |
| 20260902223554 | 58 | 294 | 0.0 | 0.0 | 0.00 | 0.00 | 0.00 | 90 | 1018.0 |
| 20260902223056 | 58 | 294 | 0.0 | 0.0 | 0.00 | 0.00 | 0.00 | 90 | 1017.9 |
| 20260902222556 | 58 | 294 | 0.0 | 0.0 | 0.00 | 0.00 | 0.00 | 89 | 1017.9 |
| 20260902222053 | 58 | 294 | 0.0 | 0.0 | 0.00 | 0.00 | 0.00 | 89 | 1017.9 |
| 20260902221608 | 58 | 294 | 0.0 | 0.0 | 0.00 | 0.00 | 0.00 | 89 | 1017.8 |
| 20260902221055 | 58 | 294 | 0.0 | 0.0 | 0.00 | 0.00 | 0.00 | 89 | 1017.9 |
| 20260902220552 | 58 | 294 | 0.0 | 0.0 | 0.00 | 0.00 | 0.00 | 89 | 1018.0 |
| 20260902220058 | 58 | 294 | 0.0 | 0.0 | 0.00 | 0.00 | 0.00 | 89 | 1018.1 |
| 20260902215552 | 58 | 294 | 0.0 | 0.0 | 0.00 | 0.00 | 0.00 | 88 | 1018.0 |
| 20260902215051 | 58 | 294 | 0.0 | 0.0 | 0.00 | 0.00 | 0.00 | 88 | 1018.0 |
| 20260902214052 | 58 | 294 | 0.0 | 0.0 | 0.00 | 0.00 | 0.00 | 88 | 1018.0 |
| 20260902213552 | 59 | 294 | 0.0 | 0.0 | 0.00 | 0.00 | 0.00 | 87 | 1017.9 |
| 20260902213051 | 59 | 294 | 0.0 | 0.0 | 0.00 | 0.00 | 0.00 | 87 | 1017.9 |
| 20260902212551 | 59 | 294 | 0.0 | 0.0 | 0.00 | 0.00 | 0.00 | 87 | 1017.9 |
| 20260902212051 | 59 | 294 | 0.0 | 0.0 | 0.00 | 0.00 | 0.00 | 87 | 1017.8 |
| 20260902211550 | 59 | 294 | 0.0 | 0.0 | 0.00 | 0.00 | 0.00 | 87 | 1017.9 |
| 20260902211051 | 59 | 294 | 0.0 | 0.0 | 0.00 | 0.00 | 0.00 | 87 | 1017.8 |
| 20260902210553 | 60 | 294 | 0.0 | 0.0 | 0.00 | 0.00 | 0.00 | 86 | 1017.8 |
| 20260902210051 | 60 | 294 | 0.0 | 0.0 | 0.00 | 0.00 | 0.00 | 86 | 1017.8 |
| 20260902205554 | 60 | 294 | 0.0 | 0.0 | 0.00 | 0.00 | 0.00 | 86 | 1017.9 |
| 20260902205050 | 60 | 294 | 0.0 | 0.0 | 0.00 | 0.00 | 0.00 | 86 | 1017.9 |
| 20260902204550 | 61 | 294 | 0.0 | 0.0 | 0.00 | 0.00 | 0.00 | 86 | 1017.9 |
| 20260902204049 | 61 | 294 | 0.0 | 0.0 | 0.00 | 0.00 | 0.00 | 86 | 1017.9 |
| 20260902203553 | 61 | 294 | 0.0 | 0.0 | 0.00 | 0.00 | 0.00 | 86 | 1018.0 |
| 20260902203049 | 61 | 294 | 0.0 | 0.0 | 0.00 | 0.00 | 0.00 | 86 | 1017.9 |
| 20260902202549 | 61 | 294 | 0.0 | 0.0 | 0.00 | 0.00 | 0.00 | 86 | 1018.0 |
| 20260902202049 | 61 | 294 | 0.0 | 0.0 | 0.00 | 0.00 | 0.00 | 86 | 1018.0 |
| 20260902201556 | 61 | 294 | 0.0 | 0.0 | 0.00 | 0.00 | 0.00 | 86 | 1018.0 |
| 20260902201048 | 61 | 294 | 0.0 | 0.0 | 0.00 | 0.00 | 0.00 | 86 | 1018.0 |
| 20260902200547 | 61 | 294 | 0.0 | 0.0 | 0.00 | 0.00 | 0.00 | 85 | 1018.1 |
| 20260902200047 | 61 | 294 | 0.0 | 0.0 | 0.00 | 0.00 | 0.00 | 85 | 1018.2 |
| 20260902195548 | 62 | 294 | 0.0 | 0.0 | 0.00 | 0.00 | 0.00 | 85 | 1018.2 |
| 20260902195047 | 62 | 294 | 0.0 | 0.0 | 0.00 | 0.00 | 0.00 | 85 | 1018.2 |
| 20260902194547 | 62 | 294 | 0.0 | 0.0 | 0.00 | 0.00 | 0.00 | 84 | 1018.2 |
| 20260902194047 | 62 | 294 | 0.0 | 0.0 | 0.00 | 0.00 | 0.00 | 84 | 1018.2 |
| 20260902193546 | 62 | 294 | 0.0 | 0.0 | 0.00 | 0.00 | 0.00 | 84 | 1018.2 |
| 20260902193100 | 62 | 294 | 0.0 | 0.0 | 0.00 | 0.00 | 0.00 | 84 | 1018.3 |
| 20260902192549 | 62 | 294 | 0.0 | 0.0 | 0.00 | 0.00 | 0.00 | 84 | 1018.3 |
| 20260902192046 | 62 | 294 | 0.0 | 0.0 | 0.00 | 0.00 | 0.00 | 83 | 1018.3 |
| 20260902191547 | 63 | 294 | 0.0 | 0.0 | 0.00 | 0.00 | 0.00 | 83 | 1018.2 |
| 20260902191048 | 63 | 294 | 0.0 | 0.0 | 0.00 | 0.00 | 0.00 | 82 | 1018.2 |
| 20260902190548 | 63 | 294 | 0.0 | 0.0 | 0.00 | 0.00 | 0.00 | 82 | 1018.3 |
| 20260902190046 | 63 | 294 | 0.0 | 0.0 | 0.00 | 0.00 | 0.00 | 82 | 1018.3 |
| 20260902185546 | 63 | 294 | 0.0 | 0.0 | 0.00 | 0.00 | 0.00 | 82 | 1018.4 |
| 20260902185048 | 63 | 294 | 0.0 | 0.0 | 0.00 | 0.00 | 0.00 | 81 | 1018.4 |
| 20260902184546 | 63 | 294 | 0.0 | 0.0 | 0.00 | 0.00 | 0.00 | 81 | 1018.4 |
| 20260902184145 | 63 | 294 | 0.0 | 0.0 | 0.00 | 0.00 | 0.00 | 81 | 1018.4 |
| 20260902183545 | 63 | 294 | 0.0 | 0.0 | 0.00 | 0.00 | 0.00 | 80 | 1018.3 |
| 20260902183056 | 64 | 294 | 0.0 | 0.0 | 0.00 | 0.00 | 0.00 | 80 | 1018.3 |
| 20260902182544 | 64 | 294 | 0.0 | 0.0 | 0.00 | 0.00 | 0.00 | 79 | 1018.3 |
| 20260902182044 | 64 | 294 | 0.0 | 0.0 | 0.00 | 0.00 | 0.00 | 78 | 1018.2 |
| 20260902181545 | 64 | 294 | 0.0 | 0.0 | 0.00 | 0.00 | 0.00 | 77 | 1018.2 |
| 20260902181045 | 65 | 294 | 0.0 | 0.0 | 0.00 | 0.00 | 0.00 | 76 | 1018.2 |
| 20260902180544 | 65 | 294 | 0.0 | 0.0 | 0.00 | 0.00 | 0.00 | 76 | 1018.2 |
| 20260902180043 | 66 | 294 | 0.0 | 0.0 | 0.00 | 0.00 | 0.00 | 75 | 1018.1 |
| 20260902175544 | 66 | 294 | 0.0 | 0.0 | 0.00 | 0.00 | 0.00 | 74 | 1018.1 |
| 20260902175043 | 66 | 294 | 0.0 | 0.0 | 0.00 | 0.00 | 0.00 | 73 | 1018.1 |
| 20260902174543 | 66 | 294 | 0.0 | 0.0 | 0.00 | 0.00 | 0.00 | 73 | 1018.1 |
| 20260902174045 | 67 | 294 | 0.0 | 0.0 | 0.00 | 0.00 | 0.00 | 72 | 1018.0 |
| 20260902173544 | 67 | 294 | 0.0 | 0.0 | 0.00 | 0.00 | 0.00 | 71 | 1018.0 |
| 20260902173043 | 67 | 294 | 0.0 | 0.0 | 0.00 | 0.00 | 0.00 | 71 | 1017.9 |
| 20260902172543 | 67 | 294 | 0.0 | 0.0 | 0.00 | 0.00 | 0.00 | 70 | 1017.9 |
| 20260902172042 | 68 | 294 | 0.0 | 0.0 | 0.00 | 0.00 | 0.00 | 70 | 1017.9 |
| 20260902171552 | 68 | 294 | 0.0 | 0.0 | 0.00 | 0.00 | 0.00 | 69 | 1017.8 |
| 20260902171046 | 68 | 294 | 0.0 | 0.0 | 0.00 | 0.00 | 0.00 | 68 | 1017.8 |
| 20260902170541 | 68 | 294 | 0.0 | 0.0 | 0.00 | 0.00 | 0.00 | 68 | 1017.9 |
| 20260902170041 | 69 | 294 | 0.0 | 0.0 | 0.00 | 0.00 | 0.00 | 67 | 1017.8 |
| 20260902165542 | 69 | 282 | 0.0 | 3.0 | 0.00 | 0.00 | 0.00 | 67 | 1017.9 |
| 20260902165042 | 69 | 282 | 0.0 | 3.0 | 0.00 | 0.00 | 0.00 | 66 | 1017.9 |
| 20260902164543 | 69 | 282 | 0.0 | 2.0 | 0.00 | 0.00 | 0.00 | 66 | 1017.9 |
| 20260902164041 | 69 | 282 | 0.0 | 2.0 | 0.00 | 0.00 | 0.00 | 66 | 1017.8 |
| 20260902163641 | 69 | 282 | 0.0 | 7.0 | 0.00 | 0.00 | 0.00 | 65 | 1017.8 |
| 20260902163046 | 70 | 282 | 0.0 | 7.0 | 0.00 | 0.00 | 0.00 | 64 | 1017.8 |
| 20260902162541 | 70 | 281 | 2.0 | 7.0 | 0.00 | 0.00 | 0.00 | 64 | 1017.8 |
| 20260902162044 | 70 | 254 | 2.0 | 9.0 | 0.00 | 0.00 | 0.00 | 63 | 1017.8 |
| 20260902161541 | 70 | 230 | 4.0 | 9.0 | 0.00 | 0.00 | 0.00 | 63 | 1017.9 |
| 20260902161043 | 70 | 300 | 0.0 | 11.0 | 0.00 | 0.00 | 0.00 | 63 | 1017.9 |
| 20260902160540 | 70 | 278 | 5.0 | 11.0 | 0.00 | 0.00 | 0.00 | 62 | 1017.9 |
| 20260902160040 | 70 | 311 | 6.0 | 13.0 | 0.00 | 0.00 | 0.00 | 62 | 1017.9 |
| 20260902155541 | 70 | 292 | 7.0 | 13.0 | 0.00 | 0.00 | 0.00 | 61 | 1017.9 |
| 20260902155040 | 70 | 271 | 2.0 | 14.0 | 0.00 | 0.00 | 0.00 | 61 | 1017.9 |
| 20260902154640 | 70 | 284 | 6.0 | 14.0 | 0.00 | 0.00 | 0.00 | 61 | 1017.9 |
| 20260902154027 | 70 | 331 | 7.0 | 13.0 | 0.00 | 0.00 | 0.00 | 60 | 1017.9 |
| 20260902153527 | 71 | 329 | 6.0 | 13.0 | 0.00 | 0.00 | 0.00 | 60 | 1017.9 |
| 20260902153043 | 71 | 303 | 8.0 | 15.0 | 0.00 | 0.00 | 0.00 | 59 | 1017.9 |
| 20260902152526 | 72 | 300 | 7.0 | 15.0 | 0.00 | 0.00 | 0.00 | 58 | 1018.0 |
| 20260902152026 | 72 | 293 | 8.0 | 12.0 | 0.00 | 0.00 | 0.00 | 57 | 1018.0 |
| 20260902151526 | 72 | 309 | 6.0 | 12.0 | 0.00 | 0.00 | 0.00 | 59 | 1018.1 |
| 20260902151026 | 72 | 273 | 4.0 | 19.0 | 0.00 | 0.00 | 0.00 | 58 | 1018.1 |
| 20260902150525 | 72 | 289 | 6.0 | 16.0 | 0.00 | 0.00 | 0.00 | 57 | 1018.1 |
| 20260902150026 | 73 | 311 | 4.0 | 12.0 | 0.00 | 0.00 | 0.00 | 57 | 1018.1 |
| 20260902145526 | 73 | 332 | 3.0 | 17.0 | 0.00 | 0.00 | 0.00 | 56 | 1018.1 |
| 20260902145027 | 73 | 271 | 12.0 | 24.0 | 0.00 | 0.00 | 0.00 | 56 | 1018.1 |
| 20260902144526 | 73 | 258 | 10.0 | 24.0 | 0.00 | 0.00 | 0.00 | 56 | 1018.1 |
| 20260902144024 | 73 | 272 | 7.0 | 19.0 | 0.00 | 0.00 | 0.00 | 56 | 1018.1 |
| 20260902143524 | 72 | 226 | 10.0 | 20.0 | 0.00 | 0.00 | 0.00 | 56 | 1018.1 |
| 20260902142524 | 73 | 296 | 7.0 | 15.0 | 0.00 | 0.00 | 0.00 | 56 | 1018.0 |
| 20260902142025 | 73 | 260 | 7.0 | 14.0 | 0.00 | 0.00 | 0.00 | 56 | 1018.1 |
| 20260902141523 | 73 | 203 | 5.0 | 19.0 | 0.00 | 0.00 | 0.00 | 56 | 1018.0 |
| 20260902141025 | 73 | 206 | 9.0 | 19.0 | 0.00 | 0.00 | 0.00 | 55 | 1017.9 |
| 20260902140523 | 73 | 307 | 7.0 | 18.0 | 0.00 | 0.00 | 0.00 | 56 | 1018.1 |
| 20260902140022 | 74 | 296 | 10.0 | 21.0 | 0.00 | 0.00 | 0.00 | 55 | 1018.1 |
| 20260902135522 | 73 | 262 | 9.0 | 21.0 | 0.00 | 0.00 | 0.00 | 55 | 1018.3 |
| 20260902135122 | 74 | 261 | 12.0 | 21.0 | 0.00 | 0.00 | 0.00 | 53 | 1018.4 |
| 20260902134523 | 74 | 288 | 9.0 | 24.0 | 0.00 | 0.00 | 0.00 | 54 | 1018.4 |
| 20260902134020 | 73 | 316 | 9.0 | 24.0 | 0.00 | 0.00 | 0.00 | 55 | 1018.4 |
| 20260902133520 | 74 | 275 | 8.0 | 24.0 | 0.00 | 0.00 | 0.00 | 53 | 1018.4 |
| 20260902133020 | 73 | 230 | 11.0 | 24.0 | 0.00 | 0.00 | 0.00 | 56 | 1018.4 |
| 20260902132523 | 74 | 312 | 8.0 | 20.0 | 0.00 | 0.00 | 0.00 | 57 | 1018.4 |
| 20260902132019 | 73 | 346 | 10.0 | 20.0 | 0.00 | 0.00 | 0.00 | 58 | 1018.4 |
| 20260902131535 | 72 | 307 | 8.0 | 25.0 | 0.00 | 0.00 | 0.00 | 60 | 1018.5 |
| 20260902131019 | 73 | 322 | 10.0 | 25.0 | 0.00 | 0.00 | 0.00 | 58 | 1018.5 |
| 20260902130518 | 74 | 276 | 12.0 | 19.0 | 0.00 | 0.00 | 0.00 | 57 | 1018.5 |
| 20260902130019 | 73 | 288 | 7.0 | 19.0 | 0.00 | 0.00 | 0.00 | 58 | 1018.5 |
| 20260902125522 | 73 | 280 | 11.0 | 23.0 | 0.00 | 0.00 | 0.00 | 58 | 1018.5 |
| 20260902125017 | 73 | 218 | 12.0 | 25.0 | 0.00 | 0.00 | 0.00 | 56 | 1018.5 |
| 20260902124517 | 73 | 272 | 12.0 | 25.0 | 0.00 | 0.00 | 0.00 | 57 | 1018.5 |
| 20260902124016 | 73 | 214 | 6.0 | 21.0 | 0.00 | 0.00 | 0.00 | 60 | 1018.6 |
| 20260902123515 | 73 | 221 | 8.0 | 21.0 | 0.00 | 0.00 | 0.00 | 59 | 1018.6 |
| 20260902123014 | 73 | 277 | 8.0 | 23.0 | 0.00 | 0.00 | 0.00 | 59 | 1018.8 |
| 20260902122516 | 72 | 275 | 12.0 | 24.0 | 0.00 | 0.00 | 0.00 | 59 | 1018.8 |
| 20260902122013 | 73 | 144 | 12.0 | 24.0 | 0.00 | 0.00 | 0.00 | 60 | 1018.8 |
| 20260902121513 | 71 | 239 | 11.0 | 24.0 | 0.00 | 0.00 | 0.00 | 62 | 1018.8 |
| 20260902121012 | 73 | 238 | 8.0 | 21.0 | 0.00 | 0.00 | 0.00 | 60 | 1018.8 |
| 20260902120512 | 72 | 233 | 8.0 | 20.0 | 0.00 | 0.00 | 0.00 | 63 | 1018.9 |
| 20260902120011 | 72 | 249 | 10.0 | 20.0 | 0.00 | 0.00 | 0.00 | 63 | 1018.9 |
| 20260902115514 | 72 | 257 | 11.0 | 23.0 | 0.00 | 0.00 | 0.00 | 63 | 1018.9 |
| 20260902115012 | 72 | 293 | 10.0 | 23.0 | 0.00 | 0.00 | 0.00 | 63 | 1018.9 |
| 20260902114513 | 72 | 298 | 10.0 | 16.0 | 0.00 | 0.00 | 0.00 | 64 | 1018.9 |
| 20260902114009 | 71 | 280 | 6.0 | 15.0 | 0.00 | 0.00 | 0.00 | 66 | 1019.0 |
| 20260902113610 | 71 | 296 | 9.0 | 22.0 | 0.00 | 0.00 | 0.00 | 64 | 1019.0 |
| 20260902113008 | 71 | 299 | 10.0 | 24.0 | 0.00 | 0.00 | 0.00 | 65 | 1019.0 |
| 20260902112610 | 71 | 296 | 9.0 | 24.0 | 0.00 | 0.00 | 0.00 | 65 | 1019.0 |
| 20260902112009 | 71 | 203 | 10.0 | 17.0 | 0.00 | 0.00 | 0.00 | 65 | 1019.0 |
| 20260902111507 | 70 | 269 | 7.0 | 16.0 | 0.00 | 0.00 | 0.00 | 66 | 1019.1 |
| 20260902111007 | 69 | 307 | 7.0 | 16.0 | 0.00 | 0.00 | 0.00 | 68 | 1019.1 |
| 20260902110507 | 69 | 307 | 9.0 | 16.0 | 0.00 | 0.00 | 0.00 | 68 | 1019.0 |
| 20260902110008 | 69 | 309 | 3.0 | 13.0 | 0.00 | 0.00 | 0.00 | 68 | 1019.1 |
| 20260902105507 | 69 | 327 | 3.0 | 17.0 | 0.00 | 0.00 | 0.00 | 68 | 1019.1 |
| 20260902105006 | 69 | 296 | 7.0 | 18.0 | 0.00 | 0.00 | 0.00 | 68 | 1019.2 |
| 20260902104505 | 68 | 254 | 11.0 | 18.0 | 0.00 | 0.00 | 0.00 | 68 | 1019.2 |
| 20260902104005 | 67 | 311 | 8.0 | 15.0 | 0.00 | 0.00 | 0.00 | 70 | 1019.1 |
| 20260902103504 | 67 | 323 | 6.0 | 15.0 | 0.00 | 0.00 | 0.00 | 70 | 1019.2 |